COSMOS 2058

Last updated on Sat Aug 15 2026 00:02:07 GMT+0000 (Coordinated Universal Time)

1 20465U 90010A 26226.56564870 .00001298 00000+0 73248-4 0 9993 2 20465 82.4637 251.7695 0010731 141.1580 219.0424 15.12276607966095
UTC large
Height (km)
Speed (km/s)
/
Latitude / Longitude
Inclination (degrees)
Orbital Period (minutes)
Azimuth
Elevation
Range (km)
Doppler Factor

Next 0 passes for location: London (51.5072 / 0.1276)

No passes found over London.
COSMOS 2058